Regional Weather Roundup
Issued by NWS

Home | Current Version | Previous Version | Graphics & Text | Print | Product List | Glossary On
Versions: 1 2 3 4 5 6 7 8 9 10 11 12 13 14 15 16 17 18 19 20 21 22 23 24 25 26 27 28 29 30 31 32 33 34 35 36 37 38 39 40 41 42 43 44 45 46 47 48 49 50
000
ASUS45 KCYS 301110
RWRWY

WYOMING REGIONAL WEATHER ROUNDUP
NATIONAL WEATHER SERVICE CHEYENNE WY
500 AM MDT TUE SEP 30 2014

NOTE:  "FAIR" INDICATES FEW OR NO CLOUDS BELOW 12,000 FEET
WITH NO SIGNIFICANT WEATHER AND/OR OBSTRUCTIONS TO VISIBILITY.

WYZ001-301200-
YELLOWSTONE NATIONAL PARK

CITY           SKY/WX    TMP DP  RH WIND       PRES   REMARKS
LK YELLOWSTONE   N/A     38  35  89 CALM      29.96F
W YELLOWSTONE  NOT AVBL

$$
WYZ002>013-054>058-071-098>099-301200-
NORTHERN WYOMING

CITY           SKY/WX    TMP DP  RH WIND       PRES   REMARKS
JACKSON        CLOUDY    43  43 100 SW7       29.94F
CODY           CLEAR     52  36  54 W10G16    29.78F
GREYBULL       MOCLDY    46  45  96 CALM      29.75F
WORLAND        PTCLDY    42  40  92 CALM      29.75F
SHERIDAN       CLOUDY    49  47  93 CALM      29.71F
BUFFALO        CLOUDY    51  44  77 NW13      29.72F
GILLETTE       LGT RAIN  50  48  93 CALM      29.69F
HULETT         LGT RAIN  50  48  93 N5        29.66
NEWCASTLE      LGT RAIN  48  45  87 N17G25    29.60

$$
WYZ014>020-022>026-101>103-301200-
CENTRAL WYOMING

CITY           SKY/WX    TMP DP  RH WIND       PRES   REMARKS
BIG PINEY      PTCLDY    37  35  92 NE5       29.95F WCI  33
PINEDALE       CLOUDY    39  39 100 CALM      29.95F
DUBOIS         PTSUNNY   41  32  70 NW15      29.89F
LANDER         CLEAR     42  35  76 N3        29.80F
RIVERTON       CLEAR     48  35  60 W17       29.80F
CASPER         CLOUDY    50  38  63 W15       29.75F
DOUGLAS        CLOUDY    53  41  63 W24G36    29.67F

$$
WYZ021-027>030-104>119-301200-
SOUTHERN WYOMING

CITY           SKY/WX    TMP DP  RH WIND       PRES   REMARKS
EVANSTON       CLOUDY    41  40  96 SW14      30.00F
KEMMERER       CLOUDY    41  37  87 W3        29.99F
FORT BRIDGER     N/A     43  40  88 W17       30.01F
ROCK SPRINGS   CLEAR     40  36  86 SW9       29.95F WCI  34
DIXON          PTSUNNY   43  39  86 W5        30.00F
RAWLINS        PTCLDY    41  36  82 W24G33    29.91S
SARATOGA         N/A     41  36  81 W22       29.95R
LARAMIE        CLOUDY    45  33  63 W21G29    29.86R
CHEYENNE       CLOUDY    50  37  61 W17       29.80R
TORRINGTON     LGT RAIN  49  48  97 MISG      29.66F
PINE BLUFFS    CLOUDY    45  45 100 SW14      29.79S

$$



USA.gov is the U.S. government's official web portal to all federal, state and local government web resources and services.